| time (UTC) | temp F | wind direction | speed knots | gust knots | rain 1hr in | rain 24hr in | rain mn in | humidity % | barometer mb |
| 20260507103105 | 55 | 92 | 0.9 | 5.2 | 0.00 | 0.00 | 0.00 | 80 | 1016.3 |
| 20260507101601 | 56 | 78 | 1.7 | 7.0 | 0.00 | 0.00 | 0.00 | 79 | 1016.3 |
| 20260507100112 | 56 | 94 | 0.0 | 7.0 | 0.00 | 0.00 | 0.00 | 78 | 1016.6 |
| 20260507094557 | 56 | 98 | 0.9 | 3.5 | 0.00 | 0.00 | 0.00 | 78 | 1016.5 |
| 20260507093100 | 56 | 85 | 1.7 | 6.1 | 0.00 | 0.00 | 0.00 | 77 | 1016.2 |
| 20260507091559 | 56 | 111 | 1.7 | 5.2 | 0.00 | 0.00 | 0.00 | 77 | 1016.0 |
| 20260507090058 | 56 | 105 | 0.9 | 7.0 | 0.00 | 0.00 | 0.00 | 76 | 1016.0 |
| 20260507084600 | 57 | 127 | 1.7 | 6.1 | 0.00 | 0.00 | 0.00 | 76 | 1015.9 |
| 20260507083112 | 57 | 74 | 0.9 | 5.2 | 0.00 | 0.00 | 0.00 | 75 | 1015.8 |
| 20260507081601 | 57 | 73 | 0.9 | 6.1 | 0.00 | 0.00 | 0.00 | 76 | 1015.6 |
| 20260507080058 | 57 | 122 | 0.0 | 3.5 | 0.00 | 0.00 | 0.00 | 76 | 1015.4 |
| 20260507074611 | 57 | 86 | 0.0 | 1.7 | 0.00 | 0.00 | 0.00 | 76 | 1015.3 |
| 20260507073102 | 57 | 111 | 0.9 | 3.5 | 0.00 | 0.00 | 0.00 | 76 | 1014.9 |
| 20260507071556 | 58 | 73 | 0.9 | 3.5 | 0.00 | 0.00 | 0.00 | 75 | 1014.8 |
| 20260507070100 | 58 | 56 | 0.9 | 6.1 | 0.00 | 0.00 | 0.00 | 75 | 1014.7 |
| 20260507064557 | 58 | 66 | 0.9 | 2.6 | 0.00 | 0.00 | 0.00 | 76 | 1014.4 |
| 20260507063058 | 58 | 107 | 0.9 | 2.6 | 0.00 | 0.00 | 0.00 | 76 | 1014.1 |
| 20260507061557 | 58 | 82 | 0.9 | 5.2 | 0.00 | 0.00 | 0.00 | 77 | 1014.0 |
| 20260507060105 | 58 | 94 | 0.9 | 5.2 | 0.00 | 0.00 | 0.00 | 76 | 1013.9 |
| 20260507054558 | 58 | 97 | 0.9 | 5.2 | 0.00 | 0.00 | 0.00 | 75 | 1013.9 |
| 20260507053058 | 58 | 115 | 0.9 | 6.1 | 0.00 | 0.00 | 0.00 | 75 | 1013.9 |
| 20260507051601 | 59 | 88 | 1.7 | 4.3 | 0.00 | 0.00 | 0.00 | 75 | 1013.9 |
| 20260507050059 | 59 | 84 | 1.7 | 5.2 | 0.00 | 0.00 | 0.00 | 74 | 1013.6 |
| 20260507050005 | 59 | 90 | 0.9 | 5.2 | 0.00 | 0.00 | 0.00 | 74 | 1013.5 |
| 20260507044601 | 60 | 88 | 1.7 | 7.0 | 0.00 | 0.00 | 0.00 | 73 | 1013.5 |
| 20260507043102 | 60 | 109 | 3.5 | 8.7 | 0.00 | 0.00 | 0.00 | 75 | 1013.3 |
| 20260507041558 | 61 | 61 | 0.9 | 3.5 | 0.00 | 0.00 | 0.00 | 76 | 1013.3 |
| 20260507040059 | 61 | 84 | 1.7 | 3.5 | 0.00 | 0.00 | 0.00 | 76 | 1012.9 |
| 20260507034559 | 62 | 89 | 0.9 | 3.5 | 0.00 | 0.00 | 0.00 | 75 | 1012.4 |
| 20260507033059 | 62 | 90 | 0.9 | 2.6 | 0.00 | 0.00 | 0.00 | 74 | 1012.2 |
| 20260507031559 | 63 | 93 | 0.0 | 2.6 | 0.00 | 0.00 | 0.00 | 73 | 1012.0 |
| 20260507030100 | 63 | 119 | 1.7 | 4.3 | 0.00 | 0.00 | 0.00 | 72 | 1011.8 |
| 20260507024623 | 63 | 94 | 0.9 | 2.6 | 0.00 | 0.00 | 0.00 | 71 | 1011.6 |
| 20260507023058 | 64 | 90 | 0.9 | 2.6 | 0.00 | 0.00 | 0.00 | 70 | 1011.3 |
| 20260507021558 | 64 | 86 | 0.9 | 3.5 | 0.00 | 0.00 | 0.00 | 69 | 1010.9 |
| 20260507020111 | 65 | 114 | 0.9 | 5.2 | 0.00 | 0.00 | 0.00 | 67 | 1010.8 |
| 20260507014607 | 67 | 119 | 1.7 | 6.1 | 0.00 | 0.00 | 0.00 | 64 | 1010.7 |
| 20260507013058 | 68 | 90 | 0.9 | 3.5 | 0.00 | 0.00 | 0.00 | 60 | 1010.6 |
| 20260507011558 | 68 | 97 | 1.7 | 5.2 | 0.00 | 0.00 | 0.00 | 59 | 1010.5 |
| 20260507010058 | 69 | 90 | 0.9 | 6.1 | 0.00 | 0.00 | 0.00 | 58 | 1010.2 |
| 20260507004559 | 69 | 95 | 0.9 | 6.1 | 0.00 | 0.00 | 0.00 | 58 | 1010.1 |
| 20260507003059 | 69 | 115 | 1.7 | 5.2 | 0.00 | 0.00 | 0.00 | 58 | 1009.9 |
| 20260507001602 | 70 | 84 | 1.7 | 6.1 | 0.00 | 0.00 | 0.00 | 57 | 1009.7 |
| 20260507000100 | 70 | 86 | 1.7 | 6.1 | 0.00 | 0.00 | 0.00 | 57 | 1009.8 |
| 20260506234605 | 70 | 91 | 0.9 | 5.2 | 0.00 | 0.00 | 0.00 | 58 | 1009.8 |
| 20260506233101 | 70 | 84 | 0.9 | 3.5 | 0.00 | 0.00 | 0.00 | 57 | 1009.7 |
| 20260506231600 | 71 | 73 | 0.9 | 5.2 | 0.00 | 0.00 | 0.00 | 57 | 1009.6 |
| 20260506230100 | 71 | 90 | 0.0 | 3.5 | 0.00 | 0.00 | 0.00 | 56 | 1009.6 |
| 20260506224558 | 71 | 133 | 0.0 | 3.5 | 0.00 | 0.00 | 0.00 | 57 | 1009.4 |
| 20260506223059 | 71 | 123 | 1.7 | 5.2 | 0.00 | 0.00 | 0.00 | 57 | 1009.3 |
| 20260506221558 | 71 | 101 | 1.7 | 5.2 | 0.00 | 0.00 | 0.00 | 55 | 1009.2 |
| 20260506220058 | 71 | 118 | 0.0 | 6.1 | 0.00 | 0.00 | 0.00 | 55 | 1009.3 |
| 20260506214559 | 71 | 110 | 0.9 | 5.2 | 0.00 | 0.00 | 0.00 | 56 | 1009.3 |
| 20260506213131 | 71 | 102 | 1.7 | 5.2 | 0.00 | 0.00 | 0.00 | 58 | 1009.6 |
| 20260506211618 | 71 | 152 | 1.7 | 5.2 | 0.00 | 0.00 | 0.00 | 57 | 1009.5 |
| 20260506204600 | 71 | 100 | 0.9 | 6.1 | 0.00 | 0.00 | 0.00 | 58 | 1009.6 |
| 20260506203102 | 69 | 105 | 1.7 | 5.2 | 0.00 | 0.00 | 0.00 | 58 | 1010.0 |
| 20260506201609 | 68 | 355 | 0.0 | 7.0 | 0.00 | 0.00 | 0.00 | 61 | 1010.3 |
| 20260506194614 | 66 | 90 | 0.9 | 6.1 | 0.00 | 0.00 | 0.00 | 67 | 1010.6 |
| 20260506193101 | 65 | 122 | 1.7 | 3.5 | 0.00 | 0.00 | 0.00 | 67 | 1010.7 |
| 20260506191602 | 63 | 97 | 1.7 | 6.1 | 0.00 | 0.00 | 0.00 | 70 | 1010.7 |
| 20260506190058 | 62 | 90 | 0.9 | 6.1 | 0.00 | 0.00 | 0.00 | 70 | 1010.9 |
| 20260506184608 | 62 | 124 | 1.7 | 5.2 | 0.00 | 0.00 | 0.00 | 71 | 1010.9 |
| 20260506183103 | 62 | 92 | 1.7 | 7.0 | 0.00 | 0.00 | 0.00 | 69 | 1011.2 |
| 20260506181557 | 62 | 134 | 0.9 | 6.1 | 0.00 | 0.00 | 0.00 | 71 | 1011.4 |
| 20260506180057 | 61 | 96 | 1.7 | 6.1 | 0.00 | 0.00 | 0.00 | 70 | 1011.2 |
| 20260506174559 | 62 | 82 | 1.7 | 7.0 | 0.00 | 0.00 | 0.00 | 69 | 1011.4 |
| 20260506173103 | 62 | 91 | 1.7 | 6.1 | 0.00 | 0.00 | 0.00 | 69 | 1011.5 |
| 20260506171558 | 62 | 89 | 1.7 | 4.3 | 0.00 | 0.00 | 0.00 | 68 | 1011.3 |
| 20260506170114 | 62 | 49 | 0.9 | 4.3 | 0.00 | 0.00 | 0.00 | 69 | 1011.2 |
| 20260506164559 | 61 | 40 | 0.9 | 3.5 | 0.00 | 0.00 | 0.00 | 71 | 1011.3 |
| 20260506163110 | 60 | 84 | 1.7 | 3.5 | 0.00 | 0.00 | 0.00 | 73 | 1011.1 |
| 20260506161557 | 58 | 60 | 0.9 | 2.6 | 0.00 | 0.00 | 0.00 | 74 | 1011.0 |
| 20260506160100 | 58 | 85 | 0.0 | 3.5 | 0.00 | 0.00 | 0.00 | 75 | 1010.8 |
| 20260506154605 | 58 | 348 | 0.9 | 4.3 | 0.00 | 0.00 | 0.00 | 75 | 1010.7 |
| 20260506153058 | 57 | 336 | 0.9 | 3.5 | 0.00 | 0.00 | 0.00 | 76 | 1010.7 |
| 20260506151558 | 57 | 331 | 0.9 | 5.2 | 0.00 | 0.00 | 0.00 | 77 | 1010.4 |
| 20260506150100 | 56 | 11 | 1.7 | 3.5 | 0.00 | 0.00 | 0.00 | 79 | 1009.9 |
| 20260506144607 | 56 | 9 | 1.7 | 3.5 | 0.00 | 0.00 | 0.00 | 82 | 1010.2 |
| 20260506143103 | 55 | 351 | 1.7 | 5.2 | 0.00 | 0.00 | 0.00 | 82 | 1009.9 |
| 20260506141557 | 54 | 68 | 0.0 | 2.6 | 0.00 | 0.00 | 0.00 | 84 | 1009.8 |
| 20260506140057 | 54 | 41 | 0.9 | 3.5 | 0.00 | 0.00 | 0.00 | 84 | 1009.6 |
| 20260506134557 | 54 | 38 | 0.9 | 3.5 | 0.00 | 0.00 | 0.00 | 85 | 1009.5 |
| 20260506133056 | 53 | 5 | 0.9 | 4.3 | 0.00 | 0.00 | 0.00 | 85 | 1009.2 |
| 20260506131557 | 54 | 48 | 0.9 | 2.6 | 0.00 | 0.00 | 0.00 | 85 | 1008.7 |
| 20260506124556 | 54 | 84 | 1.7 | 7.0 | 0.00 | 0.00 | 0.00 | 82 | 1008.9 |
| 20260506123057 | 55 | 344 | 0.9 | 6.1 | 0.00 | 0.00 | 0.00 | 80 | 1009.1 |
| 20260506121558 | 56 | 76 | 2.6 | 6.1 | 0.00 | 0.00 | 0.00 | 79 | 1007.4 |
| 20260506120056 | 56 | 61 | 0.9 | 6.1 | 0.00 | 0.00 | 0.00 | 77 | 1007.5 |
| 20260506114557 | 56 | 90 | 0.0 | 6.1 | 0.00 | 0.00 | 0.00 | 76 | 1008.6 |
| 20260506113057 | 57 | 95 | 0.9 | 6.1 | 0.00 | 0.00 | 0.00 | 75 | 1007.1 |
| 20260506111557 | 57 | 67 | 0.9 | 3.5 | 0.00 | 0.00 | 0.00 | 75 | 1007.2 |
| 20260506110057 | 57 | 17 | 0.9 | 2.6 | 0.00 | 0.00 | 0.00 | 74 | 1007.0 |
| 20260506104600 | 57 | 63 | 0.0 | 2.6 | 0.00 | 0.00 | 0.00 | 75 | 1006.8 |